Retour au catalogue

COSMOS 2251 DEB

ActifLEO
NORAD 35705·DEBRIS·🇷🇺 Russia

Lancé Jun 16, 1993 depuis Plesetsk Cosmodrome

Loading…

Prochains Passages (prochaines 24 heures)

TLE

FraisSource: Space-Track

Époque: Sep 13, 2026, 11:09 UTC

1 35705U 93036AQA 26256.46477536  .00012503  00000-0  15669-2 0  9994
2 35705  74.2700 324.3542 0019674 194.0496 166.0139 14.82124831899843

Suivez COSMOS 2251 DEB en temps réel avec AllMySat

Download on the App Store